Regional Weather Roundup
Issued by NWS

Home | Current Version | Previous Version | Graphics & Text | Print | Product List | Glossary On
Versions: 1 2 3 4 5 6 7 8 9 10 11 12 13 14 15 16 17 18 19 20 21 22 23 24 25 26 27 28 29 30 31 32 33 34 35 36 37 38 39 40 41 42 43 44 45 46 47 48 49 50
395
ASUS43 KMKX 310011
RWRWI

WISCONSIN REGIONAL WEATHER ROUNDUP
NATIONAL WEATHER SERVICE MILWAUKEE/SULLIVAN WI
700 PM CDT SAT JUL 30 2016

NOTE: "FAIR" INDICATES FEW OR NO CLOUDS BELOW 12,000 FEET WITH NO
SIGNIFICANT WEATHER AND/OR OBSTRUCTIONS TO VISIBILITY.

WIZ001-002-006>008-014>016-023>028-310100-
NORTHWEST WISCONSIN

CITY           SKY/WX    TMP DP  RH WIND       PRES   REMARKS
SUPERIOR ARPT  SUNNY     67  63  87 NE7       30.01S
6HR MIN TEMP:  67; 6HR MAX TEMP:  72;

ASHLAND        MOSUNNY   73  58  59 NE9       30.02S
6HR MIN TEMP:  73; 6HR MAX TEMP:  82;

HAYWARD        MOSUNNY   77  55  46 SE3       30.02S
6HR MIN TEMP:  77; 6HR MAX TEMP:  79;

SIREN          NOT AVBL
CUMBERLAND     SUNNY     73  59  60 SE6       30.01S
RICE LAKE      SUNNY     77  59  53 SE6       30.02S
6HR MIN TEMP:  76; 6HR MAX TEMP:  79;

CHETEK         MOSUNNY   77  63  61 SE9       30.01S
6HR MIN TEMP:  76; 6HR MAX TEMP:  80;

LADYSMITH      SUNNY     78  57  48 S3        30.03S
6HR MIN TEMP:  78; 6HR MAX TEMP:  81;

EAU CLAIRE     MOSUNNY   78  62  57 SE8       29.99S HX  80
6HR MIN TEMP:  76; 6HR MAX TEMP:  82;

MENOMONIE      SUNNY     77  64  62 E6        30.00S
6HR MIN TEMP:  76; 6HR MAX TEMP:  85;

NEW RICHMOND   SUNNY     77  58  52 SE5       29.99S
6HR MIN TEMP:  77; 6HR MAX TEMP:  81;

OSCEOLA        SUNNY     79  60  53 SE5       30.01S HX  80
6HR MIN TEMP:  75; 6HR MAX TEMP:  81;

$$

WIZ003>005-009-010-017-018-310100-
NORTH CENTRAL WISCONSIN

CITY           SKY/WX    TMP DP  RH WIND       PRES   REMARKS
MANITOWISH WTR SUNNY     75  55  50 CALM      30.04F
6HR MIN TEMP:  72; 6HR MAX TEMP:  77;

ARBOR VITAE    SUNNY     77  57  50 S3        30.05S
6HR MIN TEMP:  74; 6HR MAX TEMP:  80;

WOODRUFF       SUNNY     77  57  50 S3        30.05S
6HR MIN TEMP:  74; 6HR MAX TEMP:  80;

RHINELANDER    SUNNY     74  55  51 SE6       30.06F
6HR MIN TEMP:  74; 6HR MAX TEMP:  78;

EAGLE RIVER    SUNNY     73  50  43 SE5       30.06S
6HR MIN TEMP:  73; 6HR MAX TEMP:  78;

LAND O LAKES   SUNNY     75  50  42 SE6       30.06S
6HR MIN TEMP:  73; 6HR MAX TEMP:  79;

PHILLIPS       MOSUNNY   75  60  58 SE7       30.03S
6HR MIN TEMP:  73; 6HR MAX TEMP:  78;

TOMAHAWK       SUNNY     74  56  54 SE6       30.05S
6HR MIN TEMP:  72; 6HR MAX TEMP:  77;

MEDFORD        MOSUNNY   73  61  66 SE5       30.03S
6HR MIN TEMP:  72; 6HR MAX TEMP:  78;

MERRILL        SUNNY     73  57  57 SE3       30.05S
6HR MIN TEMP:  73; 6HR MAX TEMP:  78;

$$

WIZ029-030-035-036-043>047-310100-
CENTRAL WISCONSIN

CITY           SKY/WX    TMP DP  RH WIND       PRES   REMARKS
WAUSAU         SUNNY     74  56  53 E8        30.02F
6HR MIN TEMP:  73; 6HR MAX TEMP:  78;

MOSINEE        MOSUNNY   73  57  56 E5        30.05S
MARSHFIELD     SUNNY     76  58  53 SE7       30.03S
6HR MIN TEMP:  75; 6HR MAX TEMP:  79;

STEVENS POINT  SUNNY     73  56  55 E7        30.04S
6HR MIN TEMP:  73; 6HR MAX TEMP:  76;

WAUPACA        SUNNY     77  53  43 NE3       30.03S
6HR MIN TEMP:  77; 6HR MAX TEMP:  82;

WAUTOMA        SUNNY     75  58  55 E7        30.03S
6HR MIN TEMP:  75; 6HR MAX TEMP:  78;

WISC RAPIDS    SUNNY     76  57  51 E10       30.03F
6HR MIN TEMP:  75; 6HR MAX TEMP:  81;

CAMP DOUGLAS   SUNNY     76  61  59 E8        30.00F
6HR MIN TEMP:  75; 6HR MAX TEMP:  79;

$$

WIZ011>013-019>022-031-037>040-048>050-310100-
NORTHEAST WISCONSIN

CITY           SKY/WX    TMP DP  RH WIND       PRES   REMARKS
ANTIGO         SUNNY     71  56  59 CALM      30.07S
6HR MIN TEMP:  71; 6HR MAX TEMP:  75;

SHAWANO        SUNNY     76  54  46 E7        30.04S
OCONTO         SUNNY     73  55  53 NE6       30.03F
6HR MIN TEMP:  73; 6HR MAX TEMP:  76;

STURGEON BAY   SUNNY     74  54  49 NE6       30.04F
6HR MIN TEMP:  74; 6HR MAX TEMP:  76;

GREEN BAY      SUNNY     73  58  59 NE12      30.03F
6HR MIN TEMP:  73; 6HR MAX TEMP:  77;

MANITOWOC      SUNNY     72  57  59 NE6       30.04S
6HR MIN TEMP:  72; 6HR MAX TEMP:  75;

APPLETON       MOSUNNY   73  50  43 NE10      30.02F
CLINTONVILLE   SUNNY     73  50  43 E7        30.03F
OSHKOSH        SUNNY     75  53  46 E7        30.02S
6HR MIN TEMP:  75; 6HR MAX TEMP:  77;

$$

WIZ032>034-041-042-053>061-310100-
SOUTHWEST WISCONSIN

CITY           SKY/WX    TMP DP  RH WIND       PRES   REMARKS
LA CROSSE      MOSUNNY   80  63  55 E6        29.97F HX  81
6HR MIN TEMP:  77; 6HR MAX TEMP:  82; 6HR PCP: TRACE;

SPARTA         PTSUNNY   75  64  69 CALM      30.01S
6HR MIN TEMP:  75; 6HR MAX TEMP:  81;

VIROQUA        CLOUDY    77  62  60 SE6       30.02S
6HR MIN TEMP:  74; 6HR MAX TEMP:  80;

BOSCOBEL       SUNNY     80  63  55 E6        29.98F HX  81
6HR MIN TEMP:  78; 6HR MAX TEMP:  82;

PRAIRIE DU CHI SUNNY     77  63  61 E5        29.97F
6HR MIN TEMP:  76; 6HR MAX TEMP:  79;

PLATTEVILLE    CLOUDY    78  63  61 E7        30.00S
6HR MIN TEMP:  77; 6HR MAX TEMP:  80;

$$

WIZ056-057-062-063-064-067-068-310100-
SOUTH CENTRAL WISCONSIN

CITY           SKY/WX    TMP DP  RH WIND       PRES   REMARKS
REEDSBURG      SUNNY     76  62  60 E6        30.00S
6HR MIN TEMP:  76; 6HR MAX TEMP:  79;

BARABOO/DELLS  MOSUNNY   75  59  58 E6        30.02S
6HR MIN TEMP:  74; 6HR MAX TEMP:  79;

LONE ROCK      MOSUNNY   77  63  61 E7        29.99F
6HR MIN TEMP:  76; 6HR MAX TEMP:  80;

MINERAL POINT  SUNNY     77  63  61 NE6       30.01S
MADISON        MOSUNNY   76  57  51 NE8       30.00F
6HR MIN TEMP:  76; 6HR MAX TEMP:  80;

MIDDLETON      SUNNY     77  58  53 E7        30.01S
6HR MIN TEMP:  76; 6HR MAX TEMP:  80;

WATERTOWN      SUNNY     74  58  56 NE7       30.01S
6HR MIN TEMP:  74; 6HR MAX TEMP:  79; 6HR PCP:  0.02;

MONROE         SUNNY     75  59  57 NE8       30.00S
JANESVILLE     MOSUNNY   79  55  44 NE9       29.98F
$$

WIZ051-052-058>065-066-070>072-310100-
SOUTHEAST WISCONSIN

CITY           SKY/WX    TMP DP  RH WIND       PRES   REMARKS
MILWAUKEE      PTSUNNY   72  62  71 NE12      30.01F
6HR MIN TEMP:  71; 6HR MAX TEMP:  76;

WAUKESHA       SUNNY     72  54  53 E10       30.03S
MILWAUKEE/TIMM SUNNY     72  54  53 N10       30.03S
RACINE         SUNNY     71  62  73 N10       30.02F
6HR MIN TEMP:  71; 6HR MAX TEMP:  76;

BURLINGTON     SUNNY     73  57  57 NE7       30.01S
6HR MIN TEMP:  73; 6HR MAX TEMP:  78;

KENOSHA        PTSUNNY   71  63  75 NE6       30.01S
6HR MIN TEMP:  71; 6HR MAX TEMP:  78;

FOND DU LAC    SUNNY     76  54  46 NE8       30.02F
6HR MIN TEMP:  75; 6HR MAX TEMP:  79;

SHEBOYGAN      SUNNY     70  58  65 NE9       30.03S
6HR MIN TEMP:  70; 6HR MAX TEMP:  75;

WEST BEND      SUNNY     72  54  53 NE8       30.03S
JUNEAU         SUNNY     74  55  51 NE7       30.03S
6HR MIN TEMP:  74; 6HR MAX TEMP:  77;

$$

LSZ147-162-310100-
LAKE SUPERIOR

STATION/POSITION TIME  TEMP    WIND        PRES    WAVE
                       AIR SEA DIR/SP/G            HT/PER
                 (UTC) (F)     (DEG/KT/KT) (MB)    (FT/S)
W MID LAKE BUOY  2350   65 63   80/  6/  8 1016.6F   0
DEVILS ISLAND    0000   67      50/  7/  8 1016.6F
PORT WING        2300   65      30/ 13/ 14 1016.6
SAXON HARBOR     2300   74      50/ 11/ 12 1016.3
$$

LMZ867-665-643>646-310100-
LAKE MICHIGAN

STATION/POSITION TIME  TEMP    WIND        PRES    WAVE
                       AIR SEA DIR/SP/G            HT/PER
                 (UTC) (F)     (DEG/KT/KT) (MB)C1F1C2F2C3F3C4F4C5F5C6F6C7F7C8M1C9M2Ca!



USA.gov is the U.S. government's official web portal to all federal, state and local government web resources and services.